When you browse on this site, cookies collect data to enhance your experience and personalize the content and advertising you see.
Visit our Privacy Policy to learn more. By continuing to use the site, you agree to this use of cookies and data.
  • In Hungary
  • List of Countries
  • For 7 days
  • Water Temperature
  • Weather Map
  • News
  • Weather Widgets
  • user-avatar
    Login

    Hourly Weather Canoa

    Today, 13 November, Wednesday

    Time Temperature Precipitation Wind Pressure Humidity
    00:00 +27°C° 0 mm 2 mps 754 mmHg 85%
    01:00 +27°C° 0 mm 2 mps 754 mmHg 86%
    02:00 +27°C° 0 mm 1 mps 754 mmHg 87%
    03:00 +26°C° 0 mm 1 mps 754 mmHg 89%
    04:00 +26°C° 0 mm 1 mps 754 mmHg 89%
    05:00 +26°C° 0 mm 1 mps 754 mmHg 89%
    06:00 +26°C° 0 mm 1 mps 754 mmHg 89%
    07:00 +28°C° 0 mm 1 mps 754 mmHg 79%
    08:00 +30°C° 0 mm 2 mps 755 mmHg 70%
    09:00 +32°C° 0 mm 2 mps 755 mmHg 61%
    10:00 +35°C° 0 mm 2 mps 755 mmHg 53%
    11:00 +37°C° 0 mm 2 mps 755 mmHg 45%
    12:00 +39°C° 0 mm 2 mps 755 mmHg 37%
    13:00 +39°C° 0 mm 3 mps 754 mmHg 39%
    14:00 +38°C° 0 mm 3 mps 753 mmHg 40%
    15:00 +38°C° 0 mm 3 mps 752 mmHg 41%
    16:00 +36°C° 0 mm 3 mps 752 mmHg 48%
    17:00 +34°C° 0 mm 3 mps 752 mmHg 56%
    18:00 +31°C° 0 mm 3 mps 753 mmHg 63%
    19:00 +30°C° 0 mm 3 mps 753 mmHg 69%
    20:00 +29°C° 0 mm 3 mps 754 mmHg 74%
    21:00 +28°C° 0 mm 2 mps 755 mmHg 79%
    22:00 +28°C° 0 mm 2 mps 755 mmHg 81%
    23:00 +27°C° 0 mm 2 mps 754 mmHg 84%

    Tomorrow, 14 November, Thursday

    Time Temperature Precipitation Wind Pressure Humidity
    00:00 +27°C° 0 mm 2 mps 754 mmHg 86%
    01:00 +27°C° 0 mm 2 mps 754 mmHg 87%
    02:00 +27°C° 0 mm 2 mps 754 mmHg 88%
    03:00 +26°C° 0 mm 2 mps 753 mmHg 89%
    04:00 +26°C° 0 mm 1 mps 753 mmHg 90%
    05:00 +26°C° 0 mm 1 mps 754 mmHg 92%
    06:00 +25°C° 0 mm 1 mps 754 mmHg 93%
    07:00 +28°C° 0 mm 1 mps 754 mmHg 83%
    08:00 +30°C° 0 mm 2 mps 755 mmHg 72%
    09:00 +32°C° 0 mm 2 mps 756 mmHg 61%
    10:00 +35°C° 0 mm 2 mps 755 mmHg 55%
    11:00 +37°C° 0 mm 2 mps 755 mmHg 48%
    12:00 +39°C° 0 mm 2 mps 755 mmHg 42%
    13:00 +38°C° 0 mm 3 mps 754 mmHg 42%
    14:00 +38°C° 0 mm 3 mps 753 mmHg 43%
    15:00 +38°C° 0 mm 4 mps 752 mmHg 44%
    16:00 +36°C° 0 mm 3 mps 753 mmHg 51%
    17:00 +34°C° 0 mm 3 mps 753 mmHg 58%
    18:00 +31°C° 0 mm 3 mps 753 mmHg 65%
    19:00 +30°C° 0 mm 3 mps 753 mmHg 69%
    20:00 +29°C° 0 mm 3 mps 754 mmHg 74%
    21:00 +28°C° 0 mm 3 mps 754 mmHg 78%
    22:00 +28°C° 0 mm 2 mps 754 mmHg 79%
    23:00 +28°C° 0 mm 2 mps 754 mmHg 80%

    Day after tomorrow, 15 November, Friday

    Time Temperature Precipitation Wind Pressure Humidity
    00:00 +28°C° 0 mm 2 mps 754 mmHg 82%
    01:00 +27°C° 0 mm 2 mps 754 mmHg 84%
    02:00 +27°C° 0 mm 2 mps 753 mmHg 86%
    03:00 +26°C° 0 mm 2 mps 753 mmHg 88%
    04:00 +26°C° 0 mm 1 mps 753 mmHg 89%
    05:00 +26°C° 0 mm 1 mps 753 mmHg 91%
    06:00 +25°C° 0 mm 1 mps 753 mmHg 92%
    07:00 +28°C° 0 mm 1 mps 754 mmHg 79%
    08:00 +30°C° 0 mm 2 mps 755 mmHg 68%
    09:00 +32°C° 0 mm 2 mps 755 mmHg 58%
    10:00 +35°C° 0 mm 2 mps 755 mmHg 51%
    11:00 +37°C° 0 mm 2 mps 755 mmHg 45%
    12:00 +38°C° 0 mm 2 mps 754 mmHg 38%
    13:00 +38°C° 0 mm 3 mps 753 mmHg 38%
    14:00 +38°C° 0 mm 3 mps 753 mmHg 39%
    15:00 +38°C° 0 mm 3 mps 752 mmHg 39%
    16:00 +36°C° 0 mm 3 mps 752 mmHg 45%
    17:00 +34°C° 0 mm 3 mps 752 mmHg 52%
    18:00 +33°C° 0 mm 3 mps 752 mmHg 58%
    19:00 +30°C° 0 mm 3 mps 752 mmHg 65%
    20:00 +29°C° 0 mm 3 mps 753 mmHg 71%
    21:00 +28°C° 0 mm 2 mps 753 mmHg 78%
    22:00 +27°C° 0 mm 2 mps 753 mmHg 81%
    23:00 +27°C° 0 mm 2 mps 753 mmHg 84%

    16 November, Saturday

    Time Temperature Precipitation Wind Pressure Humidity
    00:00 +27°C° 0 mm 2 mps 753 mmHg 87%
    01:00 +26°C° 0 mm 2 mps 753 mmHg 89%
    02:00 +26°C° 0 mm 1 mps 752 mmHg 91%
    03:00 +26°C° 0 mm 1 mps 752 mmHg 93%
    04:00 +25°C° 0 mm 1 mps 752 mmHg 94%
    05:00 +25°C° 0 mm 1 mps 752 mmHg 95%
    06:00 +25°C° 0 mm 1 mps 753 mmHg 96%
    07:00 +27°C° 0 mm 2 mps 753 mmHg 85%
    08:00 +30°C° 0 mm 2 mps 753 mmHg 75%
    09:00 +33°C° 0 mm 3 mps 754 mmHg 65%
    10:00 +35°C° 0 mm 2 mps 753 mmHg 57%
    11:00 +37°C° 0 mm 2 mps 753 mmHg 49%
    12:00 +39°C° 0 mm 2 mps 753 mmHg 41%
    13:00 +39°C° 0 mm 3 mps 752 mmHg 40%
    14:00 +39°C° 0 mm 3 mps 751 mmHg 38%
    15:00 +39°C° 0 mm 3 mps 750 mmHg 37%
    16:00 +36°C° 0.1 mm 3 mps 750 mmHg 45%
    17:00 +34°C° 0.1 mm 3 mps 750 mmHg 53%
    18:00 +31°C° 0.1 mm 3 mps 750 mmHg 61%
    19:00 +30°C° 0 mm 2 mps 751 mmHg 67%
    20:00 +29°C° 0 mm 2 mps 751 mmHg 73%
    21:00 +28°C° 0 mm 2 mps 752 mmHg 79%
    22:00 +27°C° 0 mm 2 mps 752 mmHg 82%
    23:00 +27°C° 0 mm 1 mps 752 mmHg 86%

    17 November, Sunday

    Time Temperature Precipitation Wind Pressure Humidity
    00:00 +26°C° 0 mm 1 mps 752 mmHg 90%
    01:00 +26°C° 0 mm 1 mps 752 mmHg 90%
    02:00 +26°C° 0 mm 1 mps 752 mmHg 91%
    03:00 +26°C° 0 mm 1 mps 751 mmHg 92%
    04:00 +26°C° 0 mm 1 mps 752 mmHg 93%
    05:00 +26°C° 0 mm 1 mps 752 mmHg 93%
    06:00 +24°C° 0 mm 0 mps 753 mmHg 93%
    07:00 +26°C° 0 mm 0 mps 753 mmHg 85%
    08:00 +29°C° 0 mm 1 mps 754 mmHg 77%
    09:00 +31°C° 0 mm 1 mps 755 mmHg 69%
    10:00 +31°C° 0.5 mm 1 mps 754 mmHg 68%
    11:00 +32°C° 0.5 mm 1 mps 754 mmHg 68%
    12:00 +30°C° 0.5 mm 0 mps 754 mmHg 67%
    13:00 +31°C° 2.4 mm 1 mps 753 mmHg 74%
    14:00 +30°C° 2.4 mm 1 mps 752 mmHg 81%
    15:00 +29°C° 2.4 mm 1 mps 752 mmHg 88%
    16:00 +28°C° 1.2 mm 1 mps 752 mmHg 90%
    17:00 +27°C° 1.2 mm 1 mps 752 mmHg 92%
    18:00 +25°C° 1.2 mm 0 mps 752 mmHg 94%
    19:00 +25°C° 1.2 mm 0 mps 753 mmHg 94%
    20:00 +24°C° 1.2 mm 0 mps 753 mmHg 95%
    21:00 +26°C° 1.2 mm 1 mps 754 mmHg 96%
    22:00 +26°C° 3.1 mm 1 mps 754 mmHg 96%
    23:00 +26°C° 3.1 mm 1 mps 754 mmHg 96%

    18 November, Monday

    Time Temperature Precipitation Wind Pressure Humidity
    00:00 +26°C° 3.1 mm 1 mps 755 mmHg 96%
    01:00 +26°C° 2.6 mm 1 mps 754 mmHg 96%
    02:00 +25°C° 2.6 mm 1 mps 754 mmHg 96%
    03:00 +25°C° 2.6 mm 1 mps 754 mmHg 97%
    04:00 +25°C° 1.4 mm 1 mps 754 mmHg 97%
    05:00 +25°C° 1.4 mm 1 mps 755 mmHg 97%
    06:00 +25°C° 1.4 mm 1 mps 755 mmHg 97%
    07:00 +26°C° 0.7 mm 1 mps 755 mmHg 94%
    08:00 +27°C° 0.7 mm 1 mps 756 mmHg 92%
    09:00 +28°C° 0.7 mm 1 mps 757 mmHg 89%
    10:00 +28°C° 0.9 mm 1 mps 756 mmHg 87%
    11:00 +27°C° 0.9 mm 0 mps 756 mmHg 86%
    12:00 +27°C° 0.9 mm 0 mps 756 mmHg 84%
    13:00 +27°C° 0.6 mm 0 mps 755 mmHg 82%
    14:00 +28°C° 0.6 mm 0 mps 755 mmHg 80%
    15:00 +30°C° 0.6 mm 1 mps 754 mmHg 78%
    16:00 +29°C° 0.2 mm 1 mps 754 mmHg 81%
    17:00 +26°C° 0.2 mm 0 mps 754 mmHg 85%
    18:00 +26°C° 0.2 mm 0 mps 754 mmHg 88%
    19:00 +27°C° 0 mm 1 mps 754 mmHg 90%
    20:00 +27°C° 0 mm 1 mps 755 mmHg 92%
    21:00 +26°C° 0 mm 1 mps 755 mmHg 93%
    22:00 +26°C° 0 mm 1 mps 755 mmHg 93%
    23:00 +26°C° 0 mm 1 mps 755 mmHg 93%
    Show more